星链-37140(STARLINK-37140)

导读

STARLINK-37140(NORAD编号68311)是SpaceX星链星座的卫星之一,部署于近地轨道,为全球提供卫星互联网服务。截至2026年4月,星链星座在轨活跃卫星总量已突破1万颗,该卫星是星座组网的组成单元。目前公开信息中,近期在轨解体的星链卫星为编号34343、35956等,暂无STARLINK-37140发生异常事件的公开报道,正常情况下,这类卫星运行于约550公里高度的近地轨道,服务全球宽带互联网接入。

基本信息
目录编号:
68311
目录名称:
STARLINK-37140
国际标识:
2026-057T
轨道中心:
EARTH
卫星名称:
星链-37140
卫星全名:
星链-37140(STARLINK-37140)
卫星状态:
在轨 (已飞行82 天)
发射日期:
2026-03-20 UTC
国别 :
美国 (US)
星等 :
--
轨道信息
数据来源 国际轨道数据
星历时间: 2026-06-10T09:46:20+0800
10小时前
查看轨道信息
半长轴: 6798.684km
偏心率: 0.0004007
轨道倾角: 97.283°
近地点辐角 40.999°
升交点赤经 287.877°
平近点角 319.156°
近地点: 417.822km
远地点: 423.272km
周期: 92.982分钟
每日圈数: 15.486938
详细信息
固有亮度:
5
最大亮度:
2.5
卫星平台:
Starlink V1.0
覆盖范围:
全球
运营商:
太空探索技术公司
运营商所在国:
美国
制造商(研发单位):
太空探索技术公司
制造商所在国:
美国
使用方式:
暂无
卫星简介
Starlink 计划是 SpaceX 推出的全球卫星互联网项目,通过发射低轨道卫星,为全球尤其是偏远地区提供高速、低延迟的互联网服务。自 2019 年起,Starlink 已部署数千颗卫星,旨在缩小全球数字鸿沟,推动互联网普及。该项目还为军事、航空等行业提供通信支持,带来广泛经济效益。
2D轨道图
3D轨道图
轨道高度分析图
轨道倾角分析图
轨道综合分析图
查看轨道综合分析图